Weather History for KPSC - June, 2012

Change the Weather History Date:

Tuesday, June 12, 2012

  Actual Average Record
Temperature  
Mean Temperature 73 °F 67 °F  
Max Temperature 83 °F 82 °F 96 °F (1955)
Min Temperature 62 °F 52 °F 42 °F (2007)
Degree Days  
Heating Degree Days 0 1  
Month to date heating degree days 52 20  
Since 1 June heating degree days 52 20  
Since 1 July heating degree days 5007 5010  
Cooling Degree Days 8 3  
Month to date cooling degree days 22 31  
Year to date cooling degree days 52 64  
Since 1 June cooling degree days 22 31  
Growing Degree Days 23 (Base 50)    
Moisture  
Dew Point 50 °F    
Average Humidity 48    
Maximum Humidity 63    
Minimum Humidity 33    
Precipitation  
Precipitation T in 0.03 in 0.28 in (2000)
Month to date precipitation 1.11 0.35  
Year to date precipitation 4.95 4.60  
Snow  
Snow 0.00 in - - ()
Snow Depth 0.00 in    
Sea Level Pressure  
Sea Level Pressure 29.91 in    
Wind  
Wind Speed 9 mph (SW)    
Max Wind Speed 20 mph    
Max Gust Speed 25 mph    
Visibility 10 miles    
Events      
T = Trace of Precipitation, MM = Missing Value Source: NWS Daily Summary

Daily Weather History Graph

Daily Weather History Graph

Search for Another Location

Airport or City:

Trip Planner

Search our weather history database for the weather conditions in past years. The results will help you decide how hot, cold, wet, or windy it might be!

Date:

Astronomy

Jun. 12, 2012 Rise Set
Actual Time 5:04 AM PDT 8:49 PM PDT
Civil Twilight 4:25 AM PDT 9:27 PM PDT
Nautical Twilight 3:33 AM PDT 10:20 PM PDT
Astronomical Twilight 2:20 AM PDT 11:33 PM PDT
Moon 1:10 AM PDT (6/12) 2:26 PM PDT (6/12)
Length of Visible Light 17h 02m
Length of Day
15h 44m
Last Quarter, 37% of the Moon is Illuminated
Jun 12
Last Quarter
Jun 19
New
Jun 26
First Quarter
Jul 3
Full
Jul 10
Last Quarter

Hourly Weather History & Observations

Time (PDT) Temp. Heat Index Dew Point Humidity Pressure Visibility Wind Dir Wind Speed Gust Speed Precip Events Conditions
12:53 AM 64.0 °F - 51.1 °F 63% 29.96 in 10.0 mi SE 5.8 mph - N/A   Clear
1:53 AM 69.1 °F - 46.9 °F 45% 29.96 in 10.0 mi South 6.9 mph - N/A   Partly Cloudy
2:53 AM 68.0 °F - 46.9 °F 47% 29.96 in 10.0 mi South 4.6 mph - N/A   Scattered Clouds
3:53 AM 68.0 °F - 46.9 °F 47% 29.96 in 10.0 mi SSW 10.4 mph - N/A   Mostly Cloudy
4:53 AM 66.0 °F - 46.9 °F 50% 29.95 in 10.0 mi SSW 6.9 mph - N/A   Overcast
5:53 AM 64.9 °F - 48.0 °F 54% 29.96 in 10.0 mi SSW 9.2 mph - N/A   Partly Cloudy
6:53 AM 68.0 °F - 48.9 °F 50% 29.96 in 10.0 mi SSW 11.5 mph - N/A   Clear
7:53 AM 70.0 °F - 50.0 °F 49% 29.96 in 10.0 mi SSW 8.1 mph - N/A   Mostly Cloudy
8:53 AM 73.0 °F - 50.0 °F 44% 29.95 in 10.0 mi SW 6.9 mph - N/A   Clear
9:53 AM 75.0 °F - 50.0 °F 41% 29.94 in 10.0 mi WSW 8.1 mph - N/A   Clear
10:53 AM 78.1 °F - 48.0 °F 35% 29.94 in 10.0 mi SW 9.2 mph - N/A   Clear
11:53 AM 79.0 °F - 50.0 °F 36% 29.92 in 10.0 mi SW 12.7 mph - N/A   Scattered Clouds
12:53 PM 79.0 °F - 52.0 °F 39% 29.91 in 10.0 mi South 15.0 mph 19.6 mph N/A   Scattered Clouds
1:53 PM 80.1 °F 79.9 °F 53.1 °F 39% 29.89 in 10.0 mi WSW 11.5 mph - N/A   Overcast
2:53 PM 82.0 °F 81.2 °F 53.1 °F 37% 29.87 in 10.0 mi SW 11.5 mph - N/A   Mostly Cloudy
3:53 PM 80.1 °F 79.9 °F 53.1 °F 39% 29.86 in 10.0 mi WSW 17.3 mph - N/A   Scattered Clouds
4:53 PM 80.1 °F 79.9 °F 53.1 °F 39% 29.85 in 10.0 mi SSW 8.1 mph - 0.00 in   Partly Cloudy
5:53 PM 81.0 °F - 50.0 °F 34% 29.84 in 10.0 mi West 12.7 mph - N/A   Clear
6:53 PM 80.1 °F - 48.0 °F 32% 29.83 in 10.0 mi WSW 19.6 mph - N/A   Clear
7:53 PM 73.9 °F - 50.0 °F 43% 29.84 in 10.0 mi SW 12.7 mph - N/A   Clear
8:53 PM 70.0 °F - 52.0 °F 53% 29.85 in 10.0 mi West 9.2 mph - N/A   Clear
9:53 PM 68.0 °F - 51.1 °F 55% 29.88 in 10.0 mi WNW 9.2 mph - N/A   Partly Cloudy
10:53 PM 64.0 °F - 52.0 °F 65% 29.90 in 10.0 mi West 6.9 mph - N/A   Clear
11:53 PM 64.0 °F - 52.0 °F 65% 29.91 in 10.0 mi SW 11.5 mph - N/A   Clear